Thedford, NE

6:46 AM CST on December 11, 2016 (GMT -0600)
Thedford

Weather History for KTIF - November, 2012

Change the Weather History Date:

Friday, November 30, 2012

  Actual Average (KANW) Record (KANW)
Temperature  
Mean Temperature 44 °F -  
Max Temperature 60 °F 40 °F 57 °F (1998)
Min Temperature 28 °F 21 °F 3 °F (2006)
Degree Days  
Heating Degree Days 21    
Moisture  
Dew Point 28 °F    
Average Humidity 63    
Maximum Humidity 90    
Minimum Humidity 29    
Precipitation  
Precipitation 0.00 in - - ()
Sea Level Pressure  
Sea Level Pressure 29.95 in    
Wind  
Wind Speed 5 mph (South)    
Max Wind Speed 17 mph    
Max Gust Speed 22 mph    
Visibility 10 miles    
Events      
Averages and records for this station are not official NWS values.
T = Trace of Precipitation, MM = Missing Value Source: NWS Daily Summary

Daily Weather History Graph

Daily Weather History Graph

Search for Another Location

Airport or City:

Trip Planner

Search our weather history database for the weather conditions in past years. The results will help you decide how hot, cold, wet, or windy it might be!

Date:

Astronomy

Nov. 30, 2012 Rise Set
Actual Time 7:50 AM CST 5:12 PM CST
Civil Twilight 7:19 AM CST 5:43 PM CST
Nautical Twilight 6:44 AM CST 6:17 PM CST
Astronomical Twilight 6:10 AM CST 6:51 PM CST
Moon 7:08 PM CST (11/30) 9:23 AM CST (11/30)
Length of Visible Light 10h 24m
Length of Day
9h 21m
Waning Gibbous, 96% of the Moon is Illuminated
Nov 30
Waning Gibbous
Dec 6
Last Quarter
Dec 13
New
Dec 19
First Quarter
Dec 28
Full

Hourly Weather History & Observations

Time (CST) Temp. Windchill Dew Point Humidity Pressure Visibility Wind Dir Wind Speed Gust Speed Precip Events Conditions
12:15 AM 34.0 °F 29.8 °F 28.2 °F 79% 30.02 in 10.0 mi SW 4.6 mph - N/A   Clear
12:35 AM 32.5 °F 27.1 °F 27.5 °F 82% 30.03 in 10.0 mi SW 5.8 mph - N/A   Clear
12:55 AM 32.2 °F - 27.5 °F 83% 30.03 in 10.0 mi Calm Calm - N/A   Clear
1:15 AM 31.1 °F - 26.6 °F 83% 30.03 in 10.0 mi Calm Calm - N/A   Clear
1:35 AM 31.5 °F 28.1 °F 27.3 °F 85% 30.03 in 10.0 mi WSW 3.5 mph - N/A   Clear
1:55 AM 32.0 °F 26.4 °F 27.0 °F 82% 30.03 in 10.0 mi WNW 5.8 mph - N/A   Clear
2:15 AM 31.6 °F - 27.3 °F 84% 30.03 in 10.0 mi Calm Calm - N/A   Clear
2:35 AM 30.4 °F 26.9 °F 26.6 °F 86% 30.04 in 10.0 mi West 3.5 mph - N/A   Clear
2:55 AM 30.0 °F - 26.4 °F 86% 30.04 in 10.0 mi Calm Calm - N/A   Clear
3:15 AM 28.9 °F 25.2 °F 26.4 °F 90% 30.04 in 10.0 mi West 3.5 mph - N/A   Clear
3:35 AM 30.0 °F - 26.4 °F 86% 30.03 in 10.0 mi Calm Calm - N/A   Clear
3:55 AM 30.0 °F 26.5 °F 26.6 °F 87% 30.03 in 10.0 mi SW 3.5 mph - N/A   Clear
4:15 AM 31.1 °F 27.7 °F 26.8 °F 84% 30.04 in 10.0 mi West 3.5 mph - N/A   Clear
4:35 AM 31.8 °F 27.3 °F 27.7 °F 85% 30.04 in 10.0 mi SW 4.6 mph - N/A   Clear
4:55 AM 32.0 °F - 27.5 °F 83% 30.03 in 10.0 mi Calm Calm - N/A   Clear
5:15 AM 29.8 °F - 26.6 °F 88% 30.03 in 10.0 mi Calm Calm - N/A   Clear
5:35 AM 29.8 °F - 26.2 °F 86% 30.03 in 10.0 mi Calm Calm - N/A   Clear
6:15 AM 30.4 °F 26.9 °F 27.5 °F 89% 30.03 in 10.0 mi WSW 3.5 mph - N/A   Clear
6:35 AM 32.0 °F - 27.5 °F 83% 30.03 in 10.0 mi Calm Calm - N/A   Clear
6:55 AM 30.7 °F - 26.2 °F 83% 30.03 in 10.0 mi Calm Calm - N/A   Clear
7:15 AM 29.7 °F - 27.0 °F 90% 30.03 in 10.0 mi Calm Calm - N/A   Clear
7:35 AM 31.3 °F - 27.5 °F 86% 30.03 in 10.0 mi Calm Calm - N/A   Clear
7:55 AM 31.6 °F - 27.5 °F 85% 30.03 in 10.0 mi Calm Calm - N/A   Clear
8:15 AM 29.7 °F - 26.4 °F 88% 30.03 in 10.0 mi Calm Calm - N/A   Clear
8:35 AM 29.8 °F - 27.0 °F 89% 30.03 in 10.0 mi Calm Calm - N/A   Clear
8:55 AM 32.0 °F - 28.6 °F 87% 30.03 in 10.0 mi Calm Calm - N/A   Clear
9:15 AM 33.8 °F - 29.8 °F 85% 30.03 in 10.0 mi Calm Calm - N/A   Clear
9:35 AM 34.7 °F - 31.3 °F 87% 30.03 in 10.0 mi Calm Calm - N/A   Clear
9:55 AM 39.7 °F 35.6 °F 32.2 °F 74% 30.03 in 10.0 mi SSW 5.8 mph - N/A   Clear
10:15 AM 42.8 °F 41.1 °F 31.8 °F 65% 30.03 in 10.0 mi SW 3.5 mph - N/A   Clear
10:35 AM 44.6 °F - 32.7 °F 63% 30.03 in 10.0 mi Calm Calm - N/A   Clear
10:55 AM 48.2 °F - 32.4 °F 54% 30.03 in 10.0 mi South 5.8 mph - N/A   Clear
11:15 AM 52.0 °F - 32.0 °F 47% 30.03 in 10.0 mi South 17.3 mph 21.9 mph N/A   Clear
11:35 AM 53.1 °F - 31.8 °F 44% 30.02 in 10.0 mi SSW 15.0 mph 19.6 mph N/A   Clear
11:55 AM 54.7 °F - 31.3 °F 41% 30.00 in 10.0 mi SSW 13.8 mph 19.6 mph N/A   Clear
12:35 PM 56.7 °F - 27.7 °F 33% 29.97 in 10.0 mi SSW 13.8 mph 21.9 mph N/A   Clear
12:55 PM 58.1 °F - 27.7 °F 31% 29.96 in 10.0 mi South 13.8 mph 17.3 mph N/A   Clear
1:15 PM 58.3 °F - 27.1 °F 30% 29.94 in 10.0 mi SSW 13.8 mph 18.4 mph N/A   Clear
1:35 PM 59.0 °F - 26.4 °F 29% 29.92 in 10.0 mi SSW 12.7 mph - N/A   Clear
1:55 PM 59.5 °F - 27.3 °F 29% 29.91 in 10.0 mi South 11.5 mph 18.4 mph N/A   Clear
2:15 PM 59.9 °F - 27.3 °F 29% 29.90 in 10.0 mi South 13.8 mph 20.7 mph N/A   Clear
2:35 PM 60.3 °F - 27.7 °F 29% 29.89 in 10.0 mi South 15.0 mph - N/A   Clear
2:55 PM 58.3 °F - 27.9 °F 31% 29.89 in 10.0 mi South 15.0 mph - N/A   Clear
3:15 PM 57.7 °F - 27.5 °F 31% 29.89 in 10.0 mi South 15.0 mph - N/A   Clear
3:35 PM 57.0 °F - 27.9 °F 33% 29.88 in 10.0 mi South 12.7 mph 17.3 mph N/A   Clear
3:55 PM 56.5 °F - 28.4 °F 34% 29.87 in 10.0 mi South 10.4 mph - N/A   Clear
4:15 PM 56.1 °F - 29.1 °F 36% 29.88 in 10.0 mi South 9.2 mph - N/A   Clear
4:35 PM 54.5 °F - 28.9 °F 38% 29.89 in 10.0 mi SSE 8.1 mph - N/A   Clear
4:55 PM 52.3 °F - 28.8 °F 40% 29.89 in 10.0 mi South 6.9 mph - N/A   Clear
5:15 PM 50.5 °F - 28.9 °F 43% 29.87 in 10.0 mi SSE 8.1 mph - N/A   Clear
5:35 PM 50.4 °F - 27.1 °F 41% 29.87 in 10.0 mi SSE 8.1 mph - N/A   Clear
6:15 PM 47.3 °F - 27.3 °F 46% 29.87 in 10.0 mi SSE 8.1 mph - N/A   Clear
6:35 PM 44.4 °F 40.0 °F 27.5 °F 52% 29.86 in 10.0 mi SSE 8.1 mph - N/A   Clear
6:55 PM 44.6 °F 38.8 °F 27.3 °F 51% 29.85 in 10.0 mi SSE 11.5 mph - N/A   Clear
7:15 PM 45.3 °F 40.1 °F 27.0 °F 49% 29.85 in 10.0 mi South 10.4 mph - N/A   Clear
7:35 PM 44.6 °F 39.7 °F 26.8 °F 50% 29.85 in 10.0 mi South 9.2 mph - N/A   Clear
7:55 PM 43.2 °F 38.4 °F 27.3 °F 54% 29.85 in 10.0 mi SSE 8.1 mph - N/A   Clear
8:15 PM 43.2 °F 38.4 °F 27.5 °F 54% 29.85 in 10.0 mi South 8.1 mph - N/A   Clear
8:35 PM 42.4 °F 38.8 °F 28.0 °F 57% 29.85 in 10.0 mi South 5.8 mph - N/A   Clear
8:55 PM 41.2 °F 36.6 °F 28.2 °F 60% 29.85 in 10.0 mi SSE 6.9 mph - N/A   Clear
9:15 PM 40.8 °F 35.6 °F 28.4 °F 61% 29.85 in 10.0 mi South 8.1 mph - N/A   Clear
9:35 PM 41.2 °F 36.0 °F 28.6 °F 61% 29.85 in 10.0 mi South 8.1 mph - N/A   Clear
9:55 PM 41.0 °F 35.8 °F 28.6 °F 61% 29.85 in 10.0 mi SSE 8.1 mph - N/A   Clear
10:15 PM 40.3 °F 34.9 °F 28.4 °F 63% 29.84 in 10.0 mi South 8.1 mph - N/A   Clear
10:35 PM 40.3 °F 35.5 °F 28.2 °F 62% 29.84 in 10.0 mi South 6.9 mph - N/A   Clear
10:55 PM 39.9 °F 33.4 °F 28.0 °F 63% 29.83 in 10.0 mi South 10.4 mph - N/A   Clear
11:15 PM 39.2 °F 33.6 °F 28.0 °F 64% 29.83 in 10.0 mi South 8.1 mph - N/A   Clear
11:35 PM 38.7 °F 32.9 °F 27.9 °F 65% 29.83 in 10.0 mi South 8.1 mph - N/A   Clear
11:55 PM 40.1 °F 33.2 °F 27.5 °F 61% 29.82 in 10.0 mi South 11.5 mph - N/A   Clear